Location: Newark
(43.4306°N, 0.3089°E)
Time: 05:12:45
(UTC+00:00)

A-11 Canister half - Pass Details

Date: 02 September 2019
Orbit: 1513 x 1686 km, 47.2° (Epoch: 18 September)

Event Time Altitude Azimuth Distance (km) Brightness Sun altitude
Rises 20:02:22 0° 292° (WNW) 4,712 13.4 -16.1°
Reaches altitude 10° 20:05:23 10° 292° (WNW) 3,747 12.4 -16.6°
Maximum altitude 20:14:55 81° 207° (SSW) 1,617 9.0 -18.1°
Enters shadow 20:21:09 27° 123° (ESE) 2,765 9.7 -19.1°
